Regional Weather Roundup
Issued by NWS

Home | Current Version | Previous Version | Graphics & Text | Print | Product List | Glossary On
Versions: 1 2 3 4 5 6 7 8 9 10 11 12 13 14 15 16 17 18 19 20 21 22 23 24 25 26 27 28 29 30 31 32 33 34 35 36 37 38 39 40 41 42 43 44 45 46 47 48 49 50
000
ASUS43 KDTX 231001
RWRMI
MICHIGAN HOURLY REGIONAL WEATHER ROUNDUP
NATIONAL WEATHER SERVICE DETROIT/PONTIAC MI
600 AM EDT SUN JUL 23 2017

NOTE: "FAIR" INDICATES FEW OR NO CLOUDS BELOW 12,000 FEET WITH NO
SIGNIFICANT WEATHER AND/OR OBSTRUCTION TO VISIBILITY.

MIZ047>049-052>055-059>063-066>070-074>076-081>083-231100-
SOUTHEAST LOWER MICHIGAN

CITY           SKY/WX    TMP DP  RH WIND       PRES   REMARKS
ADRIAN         MOCLDY    67  65  93 N3        29.81R
ALMA           FOG       63  62  97 W8        29.80S VSB 1/4
ANN ARBOR      PTCLDY    68  66  93 NW5       29.79S
BAD AXE        PTCLDY    64  64  99 W5        29.81R FOG
DETROIT CITY   CLOUDY    72  66  81 NW5       29.79R
DETROIT        MOCLDY    70  65  84 NW6       29.79R
FLINT          FOG       66  65  96 NW5       29.81R VSB 3/4
GROSSE ILE     CLEAR     69  66  89 CALM      29.78R
HILLSDALE      FOG       68  64  88 CALM      29.82R VSB 1/4
HOWELL         MOCLDY    66  65  96 CALM      29.81R FOG

CITY           SKY/WX    TMP DP  RH WIND       PRES   REMARKS
JACKSON        LGT RAIN  68  65  90 N3        29.82R
LAMBERTVILLE   CLEAR     66  65  97 CALM      29.79R FOG
LANSING        CLOUDY    66  63  90 CALM      29.81S
LAPEER         CLOUDY    66  65  97 CALM      29.80R FOG
MASON          CLOUDY    67  65  96 CALM      29.82R
MONROE         CLEAR     66  65  98 CALM      29.79S
MT. CLEMENS    CLOUDY    69  69  99 NW5       29.77R
PONTIAC        CLOUDY    67  66  97 W6        29.79R
PORT HOPE        N/A     68  65  90 CALM      29.78R
PORT HURON     CLOUDY    68  64  88 CALM      29.78R
TRI CITIES     CLOUDY    65  65 100 W5        29.80R FOG
MIDLAND        CLOUDY    65  64  99 CALM      29.79F
TROY           CLOUDY    70  66  86 CALM      29.80S
SAGINAW HB     CLOUDY    66  64  94 CALM      29.80R FOG
$$
MIZ043>046-050>051-056>058-064>065-071>073-077>080-231100-
SOUTHWEST LOWER MICHIGAN

CITY           SKY/WX    TMP DP  RH WIND       PRES   REMARKS
BATTLE CREEK   CLOUDY    70  68  93 CALM      29.82R
BENTON HARBOR  MOCLDY    67  65  93 CALM      29.80R FOG
BIG RAPIDS     CLOUDY    66  64  94 S14G23    29.74F
COLDWATER      FOG       68  68 100 CALM      29.81S VSB 1/2
FREMONT        LGT RAIN  65  65 100 CALM      29.77F
HOLLAND        FOG       68  67  96 W3        29.82R VSB 1/4
GRAND RAPIDS   CLOUDY    70  70 100 SE5       29.79S FOG
IONIA          CLOUDY    67  66  97 SE3       29.79F FOG
KALAMAZOO      FOG       68  66  93 CALM      29.82R VSB 1/4
LUDINGTON      CLOUDY    65  65 100 CALM      29.75R
MARSHALL       MOCLDY    65  65  98 CALM      29.81R FOG
MUSKEGON       MOCLDY    68  66  93 NW5       29.78F
SOUTH HAVEN    CLOUDY    66  66  99 CALM      29.81R FOG
$$
MIZ016>042-231100-
NORTHERN LOWER MICHIGAN

CITY           SKY/WX    TMP DP  RH WIND       PRES   REMARKS
ALPENA         CLOUDY    64  61  90 CALM      29.81S
BEAVER ISLAND  CLOUDY    68  65  89 S6        29.75F
BELLAIRE       CLOUDY    68  64  86 CALM      29.77S
CADILLAC       MOCLDY    67  64  90 E5        29.77F
CHARLEVOIX     CLOUDY    67  64  91 SE5       29.79F
FRANKFORT      CLOUDY    69  68  98 CALM      29.76F
GAYLORD        CLOUDY    64  60  87 SE3       29.80F
GRAYLING       CLOUDY    63  60  90 E3        29.81S
HARBOR SPRINGS LGT RAIN  65  62  89 CALM      29.77F
HOUGHTON LAKE  CLOUDY    63  61  93 E5        29.80F
MANISTEE       CLOUDY    64  63  96 CALM      29.76S
OSCODA         CLOUDY    64  63  95 N5        29.78F
PELLSTON       CLOUDY    65  63  93 CALM      29.78S
ROGERS CITY    CLOUDY    64  60  86 SE3       29.81F
TRAVERSE CITY  CLOUDY    69  66  90 CALM      29.75F
$$
MIZ007>008-015-231100-
EASTERN UPPER MICHIGAN

CITY           SKY/WX    TMP DP  RH WIND       PRES   REMARKS
KINROSS        CLOUDY    65  57  75 SE14      29.78F
MACKINAC ISLAN CLOUDY    66  66 100 SE8       29.77F
NEWBERRY       CLOUDY    64  64  97 S10       29.74F
S. S. MARIE    CLOUDY    66  53  63 E9        29.78S
MUNISING         N/A     62  61  96 NW8       29.76S
$$
MIZ004>006-011>014-085-231100-
CENTRAL UPPER MICHIGAN

CITY           SKY/WX    TMP DP  RH WIND       PRES   REMARKS
MANISTIQUE     CLOUDY    62  59  90 CALM      29.75S FOG
ESCANABA       CLOUDY    63  63 100 CALM      29.75S
MENOMINEE      FOG       65  64  97 CALM      29.75F VSB 1/2
SAWYER-GWINN   FOG       57  56  97 NE7       29.79R VSB 1/2
$$
MIZ001>003-009>011-084-231100-
WESTERN UPPER MICHIGAN

CITY           SKY/WX    TMP DP  RH WIND       PRES   REMARKS
IRON MOUNTAIN  CLOUDY    66  64  93 N3        29.76R FOG
HOUGHTON       CLOUDY    57  54  89 NE6       29.80R
COPPER HARBOR    N/A     54  53  97 VRB3      29.81R
IRONWOOD       FOG       56  56 100 W5        29.82S VSB 1/4
$$

ABBREVIATIONS USED IN REMARKS
   TC - TEMPERATURE IN CELSIUS
  WCI - WIND CHILL INDEX
   HX - HEAT INDEX
  VSB - VISIBILITY





USA.gov is the U.S. government's official web portal to all federal, state and local government web resources and services.